Simultaneous Nadir Overpasses (SNOs) Predictions

Prediction of SNOs between AQUA and NPP Satellite Orbit:

Table of predicted SNOs for the next 14.0 days since TLE Epoch: 4/17/2021
Index Date (AQUA) Time (AQUA) Lat,Lon (AQUA) SZA (AQUA ) Date (NPP) Time (NPP) Lat,Lon (NPP) SZA (NPP ) Distance(km) Time Diff (sec)
1 04/17/2021 14:05:26 -74.98, 24.83 92.12 04/17/2021 14:04:21 -74.97, 24.77 92.05 1.98 65
2 04/17/2021 14:54:29 76.11,-164.31 86.59 04/17/2021 14:54:41 76.10,-164.38 86.60 2.02 12
3 04/20/2021 06:21:41 -75.63, 142.48 93.79 04/20/2021 06:21:00 -75.63, 142.53 93.76 1.30 41
4 04/20/2021 07:10:45 76.67, -46.55 84.99 04/20/2021 07:11:21 76.68, -46.48 84.94 1.87 36
5 04/22/2021 22:38:06 -75.81,-101.09 94.91 04/22/2021 22:37:50 -75.81,-101.11 94.89 0.68 16
6 04/22/2021 23:27:10 76.85, 69.94 83.87 04/22/2021 23:28:11 76.85, 69.96 83.82 0.37 61
7 04/25/2021 14:05:24 74.96,-155.23 85.19 04/25/2021 14:04:16 74.95,-155.27 85.26 1.25 68
8 04/25/2021 14:54:30 -76.04, 15.48 96.06 04/25/2021 14:54:39 -76.03, 15.41 96.05 2.11 9
9 04/28/2021 06:21:46 75.28, -38.48 83.97 04/28/2021 06:21:03 75.27, -38.55 84.03 2.14 43
10 04/28/2021 07:10:45 -76.69, 133.50 97.67 04/28/2021 07:11:18 -76.70, 133.61 97.73 2.98 33
11 04/30/2021 22:38:06 75.65, 78.42 82.74 04/30/2021 22:37:48 75.64, 78.34 82.77 2.48 18



Historial Predications of SNOs between AQUA and NPP
